[[{"header":{"parameterUnit":"m.s-1","parameterCategory":2,"la1":30.2991,"la2":30.254,"lo1":-89.0895,"lo2":-89.0444,"dy":0.0017,"dx":0.0017,"nx":28,"ny":28,"refTime":"2024-10-09T03:00:00:Z","depth":"0","parameterNumber":2,"parameterNumberName":"U-component_of_CURRENTS"},"data":[0,0,0,0,0,0,0,0,0,0,0,0,0,0,0,0,0,0,0,0,0,0,0,0,0,0,0,0,0,0,0,0,0,0,0,0,0,0,0,0,0,0,0,0,0,0,0,0,0,0,0,0,0,0,0,0,0,0,0.2626,0.2627,0,0.2651,0.2651,0.2651,0.2644,0.2643,0.2643,0.2643,0.2629,0.2628,0.2628,0,0,0,0,0,0,0,0,0,0,0,0,0,0.2572,0.2573,0.2626,0.2627,0.2627,0.2651,0.2651,0.2651,0.2644,0.2643,0.2643,0.2643,0.2629,0.2628,0.2628,0,0,0,0,0,0,0,0,0,0,0,0,0,0.2594,0.2574,0.2626,0.2628,0.2629,0.2651,0.2651,0.2651,0.2644,0.2643,0.2643,0.2643,0.2629,0.2629,0.2628,0.2636,0,0,0.2628,0.2628,0,0,0,0,0,0,0,0,0.2593,0.2596,0.2628,0.2628,0.2629,0.2646,0.2627,0.2645,0.2644,0.2636,0.2643,0.2642,0.2633,0.2632,0.2635,0.2635,0.2634,0.2628,0.2628,0.2628,0.2628,0,0,0,0,0,0,0,0.2591,0.2595,0.2634,0.2628,0.2629,0.2628,0.2631,0.263,0.2634,0.2636,0.2636,0.2643,0.2633,0.2635,0.2634,0.2634,0.2628,0.2628,0.2628,0.2627,0.267,0.2671,0,0,0,0,0,0,0.2594,0.2593,0.2633,0.2635,0.2612,0.263,0.2632,0.2639,0.2634,0.2634,0.2644,0.2643,0.2636,0.2635,0.2634,0.2667,0.2628,0.2627,0.2627,0.2669,0.267,0.2671,0,0,0,0,0,0,0.2593,0.2597,0.2632,0.2616,0.2621,0.2632,0.2639,0.264,0.2645,0.2641,0.264,0.2649,0.2635,0.2634,0.2643,0.2665,0.2627,0.2627,0.2667,0.2669,0.2671,0.2716,0,0,0,0,0,0,0.2591,0.2597,0.26,0.2617,0.2622,0.265,0.264,0.2641,0.2652,0.2651,0.2645,0.2643,0.2635,0.2644,0.2643,0.2664,0.2627,0.2666,0.2668,0.267,0.2713,0.272,0.2725,0,0,0,0,0,0.2589,0.2596,0.26,0.2605,0.2628,0.2651,0.2654,0.2658,0.2652,0.266,0.2658,0.2644,0.2658,0.2645,0.2644,0.2665,0.2664,0.2667,0.267,0.2711,0.2718,0.2725,0,0,0,0,0,0,0.2569,0.2597,0.2602,0.2615,0.2635,0.2651,0.2659,0.2662,0.2667,0.2666,0.2655,0.2654,0.2674,0.2664,0.2649,0.2685,0.2661,0.2663,0.2692,0.2699,0.2705,0.2713,0.2627,0,0,0,0,0,0.257,0.2583,0.2609,0.2619,0.2632,0.2647,0.2656,0.2662,0.2671,0.2673,0.267,0.2672,0.2686,0.2686,0.2693,0.2707,0.2719,0.2722,0.2728,0.2733,0.274,0.278,0.2791,0.2681,0.2681,0.268,0,0,0.2562,0.2581,0.2587,0.2617,0.2631,0.2655,0.265,0.2671,0.2689,0.2671,0.2688,0.2693,0.2696,0.2718,0.2725,0.2709,0.2773,0.2736,0.274,0.2745,0.2785,0.2795,0.2805,0.2682,0.2682,0.2682,0,0,0.2561,0.2576,0.2591,0.2614,0.2646,0.266,0.2669,0.2691,0.2701,0.2721,0.2721,0.274,0.2744,0.276,0.2766,0.2808,0.2806,0.2808,0.2839,0.2878,0.2888,0.2896,0.2935,0.2946,0.2806,0.2806,0.2806,0,0.2549,0.2577,0.2598,0.2624,0.2646,0.2665,0.2691,0.2708,0.2728,0.2747,0.2731,0.2772,0.2768,0.2814,0.2827,0.2822,0.2842,0.281,0.2886,0.2895,0.2902,0.294,0.2952,0.2809,0.2809,0.2808,0.2808,0,0.2567,0.2591,0.2604,0.2645,0.267,0.2696,0.273,0.2754,0.2765,0.2784,0.2828,0.2831,0.2857,0.2861,0.2853,0.2913,0.291,0.2893,0.2868,0.2916,0.2953,0.2965,0.2813,0.2812,0.2811,0.281,0,0,0.2531,0.2602,0.2604,0.2632,0.2687,0.2707,0.2753,0.2803,0.2835,0.2855,0.2901,0.2925,0.2932,0.2941,0.2942,0.2969,0.3039,0.2953,0.2954,0.2991,0.3133,0.314,0.3153,0.3035,0.3037,0.3039,0.314,0,0.2537,0.2588,0.2624,0.267,0.2703,0.2747,0.2788,0.2836,0.287,0.2917,0.2946,0.2982,0.2962,0.2977,0.3007,0.3037,0.3071,0.3014,0.3081,0.3084,0.3083,0.3167,0.3085,0.3169,0.3151,0.3153,0.3155,0,0.254,0.2579,0.2623,0.2698,0.2716,0.2742,0.2819,0.2857,0.2935,0.2968,0.3019,0.3042,0.3103,0.3065,0.3151,0.3117,0.3132,0.3145,0.3148,0.3146,0.3112,0.3116,0.319,0.3132,0.3173,0.3171,0.317,0,0.2505,0.2577,0.2611,0.2635,0.2718,0.2745,0.2788,0.2866,0.292,0.2999,0.3054,0.3116,0.3166,0.3196,0.3235,0.3197,0.3327,0.3274,0.3297,0.3297,0.3237,0.3229,0.3261,0.3334,0.3334,0.3333,0.3333,0,0.2496,0.2523,0.2594,0.261,0.2657,0.2721,0.2775,0.2834,0.2936,0.3001,0.3071,0.3145,0.3202,0.3281,0.3282,0.3351,0.3372,0.3331,0.3335,0.3252,0.3244,0.3196,0.316,0.3337,0.3336,0.3335,0.3335,0,0.2444,0.2493,0.2535,0.2614,0.2637,0.2663,0.2767,0.2814,0.292,0.3012,0.3047,0.3201,0.3305,0.3368,0.344,0.343,0.3394,0.3482,0.3386,0.3378,0.3316,0.3285,0.3201,0.3098,0.3518,0.3519,0.352,0,0.242,0.2437,0.2512,0.2532,0.2561,0.2615,0.2657,0.278,0.2843,0.3034,0.3083,0.3245,0.3341,0.3494,0.3518,0.3565,0.3438,0.3497,0.3402,0.3334,0.3302,0.3149,0.3055,0.3342,0.3341,0.3341,0.334,0,0.2373,0.2396,0.2428,0.2471,0.2508,0.2553,0.2628,0.2691,0.2831,0.2938,0.3086,0.3188,0.3382,0.3431,0.3534,0.3534,0.3351,0.3486,0.3436,0.3201,0.3013,0.2908,0.3256,0.3335,0.3335,0.3336,0.3336,0.3336,0.2326,0.2332,0.2372,0.24,0.2444,0.2474,0.2482,0.2588,0.2685,0.2816,0.2989,0.3109,0.3296,0.3448,0.3436,0.3407,0.3333,0.3308,0.3289,0.3149,0.3005,0.3354,0.3421,0.3422,0.3423,0.3423,0.3424,0,0.225,0.227,0.2302,0.2329,0.2331,0.2379,0.2445,0.2443,0.2506,0.268,0.2799,0.3008,0.3127,0.3246,0.3335,0.3235,0.3045,0.3145,0.2905,0.2828,0.3178,0.3127,0.3107,0.3107,0.3107,0.3107,0.3107,0.3107,0.2213,0.2204,0.2219,0.2195,0.2211,0.2176,0.2181,0.221,0.2308,0.2431,0.2555,0.2712,0.3034,0.3245,0.322,0.3132,0.2861,0.2757,0.2705,0.2975,0.2987,0.2998,0.2942,0.2884,0.2884,0.2232,0.2227,0.2224]},{"header":{"parameterUnit":"m.s-1","parameterCategory":2,"la1":30.2991,"la2":30.254,"lo1":-89.0895,"lo2":-89.0444,"dy":0.0017,"dx":0.0017,"nx":28,"ny":28,"refTime":"2024-10-09T03:00:00:Z","depth":"0","parameterNumber":3,"parameterNumberName":"V-component_of_CURRENTS"},"data":[0,0,0,0,0,0,0,0,0,0,0,0,0,0,0,0,0,0,0,0,0,0,0,0,0,0,0,0,0,0,0,0,0,0,0,0,0,0,0,0,0,0,0,0,0,0,0,0,0,0,0,0,0,0,0,0,0,0,-0.0215,-0.0215,0,-0.0272,-0.0272,-0.0273,-0.0314,-0.0314,-0.0314,-0.0315,-0.0393,-0.0395,-0.0397,0,0,0,0,0,0,0,0,0,0,0,0,0,-0.0191,-0.0191,-0.0215,-0.0215,-0.0216,-0.0272,-0.0272,-0.0273,-0.0314,-0.0314,-0.0314,-0.0315,-0.0392,-0.0395,-0.0397,0,0,0,0,0,0,0,0,0,0,0,0,0,-0.0221,-0.0191,-0.0215,-0.0241,-0.0244,-0.0271,-0.0273,-0.0274,-0.0314,-0.0314,-0.0314,-0.0315,-0.0392,-0.0395,-0.0397,-0.041,0,0,-0.0406,-0.0408,0,0,0,0,0,0,0,0,-0.022,-0.0223,-0.0237,-0.024,-0.0243,-0.0284,-0.0293,-0.032,-0.0314,-0.0289,-0.0315,-0.0315,-0.0357,-0.0363,-0.0376,-0.0414,-0.0417,-0.0407,-0.0408,-0.041,-0.041,0,0,0,0,0,0,0,-0.0217,-0.0221,-0.0239,-0.0237,-0.0241,-0.0267,-0.0272,-0.0298,-0.0323,-0.0292,-0.0294,-0.0298,-0.0359,-0.0373,-0.0378,-0.0419,-0.0406,-0.0409,-0.0411,-0.0412,-0.0469,-0.0469,0,0,0,0,0,0,-0.0204,-0.0218,-0.0237,-0.0241,-0.023,-0.0267,-0.0272,-0.0272,-0.0323,-0.033,-0.0297,-0.0299,-0.0368,-0.0374,-0.0381,-0.0387,-0.041,-0.0412,-0.0414,-0.047,-0.0469,-0.0469,0,0,0,0,0,0,-0.0203,-0.0205,-0.0235,-0.023,-0.0235,-0.0267,-0.0267,-0.0273,-0.0284,-0.0326,-0.0334,-0.0301,-0.0368,-0.0377,-0.0398,-0.0391,-0.0414,-0.0416,-0.047,-0.0469,-0.0469,-0.0408,0,0,0,0,0,0,-0.0202,-0.0204,-0.0201,-0.0228,-0.0235,-0.0242,-0.0267,-0.0274,-0.0285,-0.0288,-0.0332,-0.034,-0.0369,-0.0394,-0.0401,-0.0395,-0.0419,-0.047,-0.047,-0.0469,-0.041,-0.0406,-0.0402,0,0,0,0,0,-0.0201,-0.0189,-0.02,-0.0202,-0.0228,-0.0241,-0.0247,-0.0273,-0.0284,-0.0284,-0.0314,-0.0338,-0.0396,-0.0396,-0.0404,-0.04,-0.047,-0.047,-0.0469,-0.0412,-0.0406,-0.0402,0,0,0,0,0,0,-0.0173,-0.0192,-0.0205,-0.0199,-0.0216,-0.0247,-0.0248,-0.0267,-0.0291,-0.0292,-0.0335,-0.0345,-0.0363,-0.0389,-0.0387,-0.0415,-0.0437,-0.0439,-0.0391,-0.0386,-0.0382,-0.0364,-0.0421,0,0,0,0,0,-0.0166,-0.0164,-0.0187,-0.0182,-0.0188,-0.0218,-0.0227,-0.0242,-0.0266,-0.0277,-0.0308,-0.034,-0.0368,-0.0382,-0.0411,-0.0424,-0.0452,-0.0428,-0.0423,-0.0419,-0.0411,-0.045,-0.0448,-0.0467,-0.0467,-0.0467,0,0,-0.0154,-0.0164,-0.0163,-0.0177,-0.0193,-0.0191,-0.0224,-0.0229,-0.0229,-0.0281,-0.0291,-0.0327,-0.0369,-0.0385,-0.0395,-0.0405,-0.0428,-0.0419,-0.0415,-0.0409,-0.0449,-0.0447,-0.0445,-0.0467,-0.0467,-0.0467,0,0,-0.0123,-0.0137,-0.0123,-0.0134,-0.0149,-0.0167,-0.0164,-0.0191,-0.0205,-0.022,-0.0258,-0.0285,-0.0327,-0.0355,-0.0375,-0.0364,-0.0404,-0.0375,-0.0337,-0.0375,-0.0373,-0.0372,-0.0399,-0.0401,-0.0371,-0.0371,-0.0371,0,-0.0107,-0.0094,-0.0121,-0.0111,-0.0112,-0.0151,-0.0134,-0.0154,-0.0185,-0.0192,-0.0213,-0.0275,-0.0312,-0.0333,-0.0331,-0.0353,-0.0378,-0.0352,-0.0368,-0.0368,-0.0368,-0.0396,-0.0399,-0.0368,-0.0368,-0.0369,-0.0369,0,-0.0068,-0.0059,-0.005,-0.0051,-0.0055,-0.0048,-0.0074,-0.0083,-0.0107,-0.0131,-0.0159,-0.0213,-0.0248,-0.0267,-0.0297,-0.0314,-0.0333,-0.0359,-0.0378,-0.0362,-0.0393,-0.0397,-0.0364,-0.0365,-0.0366,-0.0366,0,0,-0.0024,-0.0023,-0.0018,-0.0005,-0.0021,-0.0015,-0.0017,-0.0028,-0.0022,-0.007,-0.0071,-0.0132,-0.0165,-0.019,-0.0235,-0.027,-0.0296,-0.0309,-0.0312,-0.0328,-0.0372,-0.0369,-0.0374,-0.0326,-0.0327,-0.0327,-0.039,0,0.0016,0.0053,0.004,0.0077,0.0095,0.0063,0.0067,0.0051,0.0024,0.0012,-0.0054,-0.0075,-0.0135,-0.0148,-0.0194,-0.0267,-0.0305,-0.0275,-0.039,-0.0393,-0.0388,-0.0378,-0.0352,-0.0405,-0.0395,-0.0396,-0.0396,0,0.0065,0.0083,0.0126,0.0147,0.0152,0.0163,0.0169,0.0167,0.013,0.0107,0.0065,0.0017,-0.0037,-0.0092,-0.021,-0.0189,-0.0273,-0.0336,-0.0341,-0.0361,-0.0399,-0.0422,-0.0414,-0.0564,-0.0403,-0.0402,-0.0402,0,0.0118,0.0149,0.0188,0.0193,0.0204,0.0216,0.0216,0.0196,0.0212,0.0168,0.0177,0.009,0.0063,-0.0056,-0.0182,-0.0199,-0.0311,-0.0354,-0.0433,-0.0433,-0.0444,-0.0445,-0.0588,-0.0442,-0.0442,-0.0442,-0.0441,0,0.0172,0.0206,0.0216,0.0237,0.029,0.027,0.0315,0.0297,0.0293,0.0327,0.0232,0.0248,0.0071,-0.0008,-0.0149,-0.029,-0.0289,-0.0419,-0.0449,-0.0422,-0.0419,-0.0578,-0.068,-0.0444,-0.0443,-0.0443,-0.0443,0,0.0228,0.0232,0.0281,0.0303,0.0317,0.0351,0.0391,0.0423,0.04,0.0443,0.044,0.0371,0.0268,0.0094,-0.0089,-0.0227,-0.0466,-0.043,-0.0378,-0.04,-0.0617,-0.0716,-0.0908,-0.0974,-0.0531,-0.0531,-0.0531,0,0.026,0.0291,0.0338,0.0377,0.039,0.0438,0.0477,0.0474,0.0522,0.0533,0.0572,0.0492,0.0468,0.0202,-0.0056,-0.0297,-0.0466,-0.0447,-0.0482,-0.0619,-0.0752,-0.0832,-0.0879,-0.0476,-0.0476,-0.0476,-0.0476,0,0.0323,0.0336,0.0378,0.0458,0.051,0.0574,0.0633,0.0694,0.0704,0.0751,0.0805,0.079,0.0544,0.0332,-0.0008,-0.0197,-0.0558,-0.0451,-0.0614,-0.0735,-0.0812,-0.089,-0.0442,-0.0474,-0.0474,-0.0474,-0.0474,-0.0474,0.0372,0.0414,0.0471,0.0552,0.0615,0.0705,0.0776,0.0856,0.0954,0.1044,0.1008,0.1024,0.0683,0.0237,-0.004,-0.0526,-0.0557,-0.0672,-0.0783,-0.0854,-0.0913,-0.045,-0.0501,-0.0501,-0.0502,-0.0502,-0.0502,0,0.0437,0.0485,0.0564,0.0656,0.074,0.0757,0.0882,0.0965,0.1104,0.1196,0.1253,0.1117,0.0695,0.0231,-0.0413,-0.0771,-0.0925,-0.0988,-0.1107,-0.1141,-0.0742,-0.0732,-0.0809,-0.0808,-0.0808,-0.0808,-0.0808,-0.0808,0.0473,0.0559,0.06,0.0749,0.0818,0.0936,0.1015,0.1142,0.1241,0.1372,0.1408,0.1401,0.1067,-0.0105,-0.0913,-0.1123,-0.1384,-0.1459,-0.1593,-0.1332,-0.1311,-0.1291,-0.1305,-0.15,-0.1501,-0.1923,-0.1928,-0.1931]}],[{"header":{"parameterUnit":"m.s-1","parameterCategory":2,"la1":30.2991,"la2":30.254,"lo1":-89.0895,"lo2":-89.0444,"dy":0.0017,"dx":0.0017,"nx":28,"ny":28,"refTime":"2024-10-09T03:00:00:Z","depth":"2","parameterNumber":2,"parameterNumberName":"U-component_of_CURRENTS"},"data":[0,0,0,0,0,0,0,0,0,0,0,0,0,0,0,0,0,0,0,0,0,0,0,0,0,0,0,0,0,0,0,0,0,0,0,0,0,0,0,0,0,0,0,0,0,0,0,0,0,0,0,0,0,0,0,0,0,0,0.242,0.2421,0,0.2451,0.2451,0.2451,0.2455,0.2455,0.2455,0.2455,0.2459,0.246,0.246,0,0,0,0,0,0,0,0,0,0,0,0,0,0.2364,0.2365,0.242,0.2421,0.2422,0.2451,0.2451,0.2451,0.2455,0.2455,0.2455,0.2455,0.2459,0.246,0.246,0,0,0,0,0,0,0,0,0,0,0,0,0,0.2389,0.2365,0.242,0.2429,0.243,0.2451,0.2451,0.2451,0.2455,0.2455,0.2455,0.2455,0.2459,0.2459,0.246,0.2464,0,0,0.2461,0.2461,0,0,0,0,0,0,0,0,0.2388,0.2391,0.2427,0.2428,0.243,0.2451,0.2433,0.2455,0.2455,0.2443,0.2455,0.2455,0.2456,0.2456,0.2459,0.2464,0.2465,0.2461,0.2461,0.2461,0.2461,0,0,0,0,0,0,0,0.2386,0.2389,0.243,0.2428,0.2429,0.2431,0.2434,0.2437,0.2447,0.2444,0.2445,0.2452,0.2456,0.2459,0.2459,0.2465,0.2461,0.2461,0.2461,0.2461,0.2517,0.2518,0,0,0,0,0,0,0.2387,0.2388,0.2429,0.2431,0.2411,0.2432,0.2435,0.2442,0.2448,0.245,0.2452,0.2452,0.2459,0.2459,0.246,0.2503,0.2461,0.2461,0.2462,0.2515,0.2517,0.2518,0,0,0,0,0,0,0.2386,0.2391,0.2428,0.2412,0.2417,0.2433,0.2441,0.2443,0.2456,0.2455,0.2455,0.2464,0.2459,0.2459,0.2477,0.2501,0.2461,0.2462,0.2514,0.2516,0.2518,0.2565,0,0,0,0,0,0,0.2384,0.239,0.2397,0.2412,0.2418,0.2449,0.2442,0.2444,0.2461,0.2461,0.2465,0.2465,0.2459,0.2477,0.2477,0.2501,0.2462,0.2512,0.2515,0.2517,0.2561,0.2568,0.2573,0,0,0,0,0,0.2382,0.2392,0.2398,0.2403,0.2427,0.245,0.2453,0.2462,0.2462,0.2472,0.2477,0.2465,0.2492,0.2478,0.2478,0.2503,0.2511,0.2514,0.2517,0.2559,0.2567,0.2573,0,0,0,0,0,0,0.2368,0.2394,0.24,0.2417,0.2437,0.2452,0.2464,0.247,0.2482,0.2484,0.2478,0.2479,0.2507,0.2499,0.2482,0.2527,0.2501,0.2504,0.2533,0.254,0.2546,0.2553,0.2462,0,0,0,0,0,0.237,0.2386,0.2409,0.2424,0.2436,0.2452,0.2463,0.2472,0.2485,0.2491,0.2494,0.2502,0.2518,0.2524,0.2533,0.2553,0.2561,0.2571,0.2577,0.2582,0.2589,0.2625,0.2635,0.2528,0.2528,0.2528,0,0,0.2367,0.2385,0.2393,0.2422,0.2438,0.2461,0.2458,0.2482,0.2503,0.2489,0.2515,0.2524,0.253,0.2557,0.2568,0.2552,0.2619,0.2585,0.259,0.2594,0.2629,0.264,0.2649,0.253,0.253,0.2529,0,0,0.2371,0.2389,0.2405,0.2427,0.246,0.2473,0.2483,0.2507,0.2521,0.2547,0.255,0.2574,0.2587,0.2602,0.261,0.2655,0.2653,0.2659,0.2691,0.2727,0.2736,0.2744,0.2777,0.2787,0.2658,0.2659,0.2659,0,0.2366,0.2393,0.2413,0.2438,0.246,0.248,0.2505,0.2524,0.255,0.2571,0.2561,0.261,0.2611,0.2657,0.2673,0.2669,0.2688,0.2662,0.2735,0.2743,0.275,0.2782,0.2793,0.2661,0.2661,0.2661,0.266,0,0.2384,0.2409,0.2423,0.2462,0.2487,0.2514,0.2547,0.2573,0.2591,0.2611,0.2661,0.267,0.27,0.2707,0.2702,0.2761,0.2758,0.2741,0.2715,0.2764,0.2794,0.2805,0.2665,0.2664,0.2663,0.2662,0,0,0.2358,0.2423,0.2427,0.2453,0.2506,0.2525,0.2572,0.262,0.2654,0.2682,0.273,0.2761,0.2773,0.2784,0.2788,0.2814,0.2882,0.2802,0.2803,0.2833,0.2967,0.2952,0.2962,0.288,0.2882,0.2883,0.297,0,0.2365,0.2412,0.2446,0.2491,0.252,0.2564,0.2604,0.2652,0.2691,0.274,0.2773,0.2815,0.2801,0.2821,0.2851,0.2879,0.2912,0.286,0.2917,0.2919,0.2898,0.2974,0.2752,0.2809,0.298,0.2982,0.2983,0,0.2369,0.2403,0.2446,0.2515,0.2532,0.2561,0.2636,0.2675,0.2754,0.279,0.2845,0.2871,0.2934,0.2903,0.2983,0.2954,0.2969,0.298,0.2983,0.2959,0.2923,0.2787,0.2822,0.3001,0.2999,0.2998,0.2997,0,0.2336,0.2404,0.2437,0.246,0.2536,0.2567,0.261,0.2687,0.2741,0.2825,0.2879,0.2942,0.2994,0.3022,0.306,0.3028,0.3142,0.3096,0.3097,0.3095,0.2913,0.2892,0.3151,0.3151,0.315,0.315,0.315,0,0.2327,0.2354,0.2423,0.244,0.2486,0.2548,0.2605,0.2665,0.2764,0.2826,0.29,0.2966,0.3028,0.3099,0.3101,0.3152,0.3181,0.3126,0.3126,0.2924,0.2905,0.3067,0.3056,0.3153,0.3153,0.3152,0.3151,0,0.2279,0.2326,0.2367,0.2444,0.2469,0.2499,0.2604,0.2649,0.2753,0.2842,0.2879,0.3018,0.3109,0.3169,0.3234,0.3218,0.3249,0.3252,0.3018,0.299,0.3163,0.3154,0.3259,0.326,0.326,0.326,0.3261,0,0.2257,0.2273,0.235,0.2372,0.2405,0.2463,0.2505,0.2623,0.2682,0.2858,0.2901,0.3047,0.3119,0.3245,0.325,0.3283,0.3294,0.3079,0.2974,0.3191,0.318,0.3169,0.316,0.2748,0.2744,0.2741,0.2738,0,0.2213,0.224,0.2271,0.2317,0.2359,0.2403,0.2478,0.2529,0.2662,0.2755,0.2875,0.2955,0.3109,0.3063,0.3142,0.3115,0.3055,0.3016,0.331,0.2765,0.2718,0.2704,0.2709,0.2709,0.2712,0.2714,0.2715,0.2717,0.2172,0.2178,0.2219,0.2252,0.2298,0.2323,0.2327,0.242,0.2499,0.2601,0.2746,0.2791,0.287,0.2886,0.2825,0.2786,0.298,0.2825,0.283,0.284,0.2776,0.2733,0.2715,0.2718,0.272,0.2722,0.2724,0,0.2103,0.2121,0.2154,0.2181,0.2184,0.2239,0.229,0.2274,0.2312,0.2435,0.2518,0.2388,0.241,0.247,0.239,0.2424,0.2348,0.2306,0.2171,0.2206,0.2236,0.2133,0.1905,0.1902,0.1899,0.1896,0,0,0.2069,0.2059,0.2071,0.2048,0.207,0.2036,0.2034,0.2036,0.2091,0.209,0.2105,0.2306,0.2422,0.2121,0.2116,0.1988,0.2062,0.1915,0.2587,0.2465,0.2489,0.2572,0.2461,0,0,0,0,0]},{"header":{"parameterUnit":"m.s-1","parameterCategory":2,"la1":30.2991,"la2":30.254,"lo1":-89.0895,"lo2":-89.0444,"dy":0.0017,"dx":0.0017,"nx":28,"ny":28,"refTime":"2024-10-09T03:00:00:Z","depth":"2","parameterNumber":3,"parameterNumberName":"V-component_of_CURRENTS"},"data":[0,0,0,0,0,0,0,0,0,0,0,0,0,0,0,0,0,0,0,0,0,0,0,0,0,0,0,0,0,0,0,0,0,0,0,0,0,0,0,0,0,0,0,0,0,0,0,0,0,0,0,0,0,0,0,0,0,0,0.0008,0.0007,0,-0.0053,-0.0054,-0.0054,-0.0099,-0.01,-0.01,-0.01,-0.0178,-0.018,-0.0182,0,0,0,0,0,0,0,0,0,0,0,0,0,0.0039,0.0039,0.0008,0.0007,0.0007,-0.0053,-0.0054,-0.0055,-0.0099,-0.01,-0.01,-0.01,-0.0178,-0.018,-0.0182,0,0,0,0,0,0,0,0,0,0,0,0,0,0.0005,0.0039,0.0008,-0.0021,-0.0025,-0.0052,-0.0054,-0.0055,-0.0099,-0.01,-0.01,-0.01,-0.0177,-0.018,-0.0182,-0.0192,0,0,-0.0191,-0.0192,0,0,0,0,0,0,0,0,0.0007,0.0004,-0.0017,-0.0019,-0.0023,-0.0067,-0.0071,-0.0101,-0.0099,-0.0073,-0.01,-0.0101,-0.0141,-0.0147,-0.016,-0.0196,-0.0199,-0.0191,-0.0193,-0.0194,-0.0195,0,0,0,0,0,0,0,0.001,0.0006,-0.0018,-0.0017,-0.0021,-0.0047,-0.0052,-0.0077,-0.0106,-0.0075,-0.0078,-0.0082,-0.0144,-0.0157,-0.0162,-0.02,-0.0191,-0.0193,-0.0195,-0.0196,-0.0252,-0.0252,0,0,0,0,0,0,0.0023,0.0009,-0.0016,-0.0019,-0.0007,-0.0047,-0.0053,-0.0054,-0.0105,-0.0113,-0.0082,-0.0084,-0.0152,-0.0159,-0.0165,-0.0173,-0.0194,-0.0197,-0.0198,-0.0252,-0.0252,-0.0252,0,0,0,0,0,0,0.0024,0.0022,-0.0013,-0.0006,-0.0012,-0.0047,-0.0048,-0.0055,-0.0069,-0.011,-0.0118,-0.0088,-0.0153,-0.0161,-0.0183,-0.0177,-0.0198,-0.02,-0.0253,-0.0252,-0.0252,-0.0194,0,0,0,0,0,0,0.0026,0.0023,0.0025,-0.0005,-0.0012,-0.0022,-0.0048,-0.0056,-0.007,-0.0074,-0.0118,-0.0126,-0.0154,-0.0178,-0.0185,-0.0181,-0.0202,-0.0253,-0.0253,-0.0252,-0.0196,-0.0191,-0.0188,0,0,0,0,0,0.0027,0.0037,0.0025,0.0022,-0.0007,-0.0022,-0.0028,-0.0056,-0.007,-0.0071,-0.0101,-0.0124,-0.0181,-0.018,-0.0189,-0.0185,-0.0253,-0.0253,-0.0252,-0.0198,-0.0192,-0.0188,0,0,0,0,0,0,0.0052,0.0032,0.0019,0.0022,0.0004,-0.0029,-0.0032,-0.0051,-0.0077,-0.008,-0.0122,-0.0131,-0.0149,-0.0175,-0.0172,-0.0201,-0.0221,-0.0223,-0.0177,-0.0172,-0.0168,-0.015,-0.0205,0,0,0,0,0,0.0059,0.006,0.0036,0.0038,0.0031,-0.0,-0.0011,-0.0028,-0.0053,-0.0065,-0.0096,-0.0129,-0.0154,-0.0168,-0.0196,-0.0209,-0.0235,-0.0213,-0.0209,-0.0205,-0.0196,-0.0234,-0.0232,-0.0251,-0.0251,-0.0251,0,0,0.0069,0.0059,0.0059,0.0043,0.0025,0.0027,-0.0008,-0.0016,-0.0017,-0.0069,-0.0081,-0.0116,-0.0155,-0.0171,-0.0181,-0.0191,-0.0213,-0.0205,-0.0201,-0.0194,-0.0233,-0.0231,-0.0229,-0.025,-0.0251,-0.0251,0,0,0.0097,0.0081,0.0094,0.0083,0.0065,0.0047,0.0048,0.0019,0.0004,-0.0013,-0.0049,-0.0077,-0.0119,-0.0143,-0.0162,-0.0151,-0.0191,-0.0164,-0.0127,-0.0163,-0.0162,-0.0161,-0.0187,-0.0189,-0.016,-0.016,-0.016,0,0.0109,0.0121,0.0094,0.0104,0.0103,0.0062,0.0078,0.0057,0.0024,0.0017,-0.0008,-0.0068,-0.0104,-0.012,-0.0119,-0.0141,-0.0167,-0.0141,-0.0157,-0.0157,-0.0157,-0.0184,-0.0187,-0.0157,-0.0158,-0.0158,-0.0158,0,0.0146,0.0154,0.0161,0.0161,0.0156,0.0162,0.0136,0.0125,0.0099,0.0075,0.0047,-0.0007,-0.0041,-0.006,-0.0088,-0.0103,-0.0123,-0.0148,-0.0166,-0.0151,-0.0181,-0.0185,-0.0153,-0.0154,-0.0155,-0.0156,0,0,0.0181,0.0186,0.0189,0.0205,0.0188,0.0194,0.0192,0.0183,0.0188,0.0138,0.0136,0.0078,0.0042,0.0019,-0.0025,-0.0059,-0.0085,-0.0099,-0.0102,-0.0118,-0.016,-0.0171,-0.0177,-0.0116,-0.0116,-0.0117,-0.0179,0,0.0218,0.0256,0.0245,0.0282,0.0301,0.0271,0.0276,0.026,0.0234,0.0219,0.0155,0.0133,0.0074,0.0058,0.0014,-0.0058,-0.0094,-0.0066,-0.0178,-0.0181,-0.0187,-0.0181,-0.0154,-0.0207,-0.0183,-0.0184,-0.0185,0,0.0262,0.0282,0.0325,0.0351,0.0357,0.0366,0.0374,0.0374,0.0338,0.0314,0.0272,0.0223,0.0169,0.0114,-0.0002,0.0018,-0.0063,-0.0125,-0.013,-0.0161,-0.0199,-0.0221,-0.0216,-0.0192,-0.0191,-0.0191,-0.019,0,0.031,0.0344,0.0383,0.039,0.0405,0.0416,0.0418,0.04,0.0417,0.0373,0.0379,0.0294,0.0262,0.0148,0.002,0.0007,-0.0108,-0.0144,-0.023,-0.0232,-0.0241,-0.0242,-0.0227,-0.0227,-0.0226,-0.0226,-0.0226,0,0.036,0.0393,0.0408,0.0429,0.048,0.0466,0.0508,0.0493,0.049,0.0523,0.0431,0.0439,0.0268,0.0186,0.0051,-0.0094,-0.0088,-0.0218,-0.0248,-0.0219,-0.0218,-0.0232,-0.0232,-0.0229,-0.0228,-0.0228,-0.0227,0,0.041,0.0416,0.0466,0.049,0.0505,0.0537,0.0579,0.0611,0.059,0.063,0.0625,0.0551,0.0438,0.0271,0.009,-0.004,-0.0186,-0.0241,-0.019,-0.0213,-0.0295,-0.0291,-0.0345,-0.0346,-0.0346,-0.0347,-0.0347,0,0.0438,0.0468,0.0517,0.0554,0.0566,0.0613,0.0652,0.0655,0.0702,0.0709,0.0744,0.0652,0.061,0.0342,0.0094,-0.014,-0.0179,-0.0276,-0.0302,-0.0283,-0.0307,-0.0302,-0.0297,-0.0292,-0.0292,-0.0292,-0.0292,0,0.0495,0.0506,0.0549,0.0624,0.0674,0.074,0.0797,0.0855,0.087,0.0904,0.0937,0.0905,0.0656,0.0427,0.0098,-0.0065,-0.0239,-0.0284,-0.028,-0.0262,-0.0238,-0.026,-0.0256,-0.0292,-0.0292,-0.0292,-0.0292,-0.0292,0.0537,0.0577,0.0631,0.0707,0.0767,0.0854,0.0921,0.0993,0.1076,0.1136,0.1094,0.1047,0.0779,0.0372,0.008,-0.0237,-0.0227,-0.0339,-0.0338,-0.0336,-0.0315,-0.0293,-0.0353,-0.0354,-0.0354,-0.0354,-0.0354,0,0.0593,0.0638,0.0712,0.0799,0.0875,0.0896,0.1015,0.1083,0.1191,0.1235,0.1256,0.1016,0.0753,0.0435,-0.0025,-0.0296,-0.0322,-0.0388,-0.0356,-0.0354,-0.0352,-0.0331,-0.0374,-0.0375,-0.0376,-0.0377,0,0,0.0623,0.0703,0.0741,0.0874,0.0937,0.1046,0.1118,0.1216,0.1277,0.1323,0.1298,0.1243,0.0858,0.0529,0.0155,-0.0113,-0.0175,-0.017,-0.0124,-0.004,-0.0036,-0.0293,-0.0254,0,0,0,0,0]}],[{"header":{"parameterUnit":"m.s-1","parameterCategory":2,"la1":30.2991,"la2":30.254,"lo1":-89.0895,"lo2":-89.0444,"dy":0.0017,"dx":0.0017,"nx":28,"ny":28,"refTime":"2024-10-09T03:00:00:Z","depth":"4","parameterNumber":2,"parameterNumberName":"U-component_of_CURRENTS"},"data":[0,0,0,0,0,0,0,0,0,0,0,0,0,0,0,0,0,0,0,0,0,0,0,0,0,0,0,0,0,0,0,0,0,0,0,0,0,0,0,0,0,0,0,0,0,0,0,0,0,0,0,0,0,0,0,0,0,0,0.1573,0.1574,0,0.1638,0.1639,0.1639,0.1692,0.1692,0.1693,0.1694,0.1767,0.1768,0.1769,0,0,0,0,0,0,0,0,0,0,0,0,0,0.1488,0.1489,0.1573,0.1574,0.1575,0.1638,0.1639,0.164,0.1691,0.1692,0.1693,0.1694,0.1766,0.1768,0.1769,0,0,0,0,0,0,0,0,0,0,0,0,0,0.1534,0.1489,0.1573,0.161,0.1614,0.1638,0.1639,0.164,0.1691,0.1692,0.1693,0.1694,0.1766,0.1767,0.1769,0.176,0,0,0.1775,0.1776,0,0,0,0,0,0,0,0,0.1531,0.1537,0.1604,0.1608,0.1612,0.166,0.1636,0.1681,0.1691,0.166,0.1694,0.1695,0.1732,0.1737,0.1744,0.1764,0.1767,0.1775,0.1777,0.1777,0.1778,0,0,0,0,0,0,0,0.1528,0.1535,0.1597,0.1605,0.161,0.1621,0.1629,0.1644,0.1688,0.1663,0.1667,0.1677,0.1734,0.1742,0.1746,0.1768,0.1775,0.1777,0.1778,0.1779,0.1887,0.1889,0,0,0,0,0,0,0.1523,0.1532,0.1595,0.1599,0.1576,0.1622,0.1631,0.1642,0.1688,0.1696,0.1676,0.1679,0.1738,0.1744,0.1749,0.1834,0.1777,0.1779,0.178,0.1885,0.1887,0.1889,0,0,0,0,0,0,0.1521,0.1528,0.1593,0.1568,0.1578,0.1623,0.1635,0.1643,0.1685,0.1698,0.1707,0.1715,0.1739,0.1746,0.1796,0.1833,0.178,0.1782,0.1883,0.1886,0.1888,0.1944,0,0,0,0,0,0,0.1518,0.1527,0.155,0.1568,0.1579,0.1629,0.1634,0.1643,0.1688,0.1694,0.1734,0.1739,0.174,0.1793,0.1798,0.1835,0.1783,0.1881,0.1884,0.1887,0.194,0.1948,0.1955,0,0,0,0,0,0.1515,0.1536,0.155,0.1559,0.1603,0.163,0.1638,0.1671,0.169,0.1713,0.1744,0.174,0.1817,0.1796,0.1801,0.184,0.188,0.1883,0.1887,0.1936,0.1946,0.1955,0,0,0,0,0,0,0.1512,0.1544,0.156,0.1591,0.162,0.1641,0.1671,0.169,0.1732,0.175,0.1759,0.1767,0.1826,0.1825,0.1802,0.1881,0.1849,0.1854,0.1884,0.1894,0.1901,0.1901,0.1785,0,0,0,0,0,0.152,0.1548,0.1574,0.1605,0.1622,0.1653,0.1675,0.1699,0.173,0.1751,0.1778,0.1809,0.1839,0.1861,0.1884,0.1925,0.1928,0.1954,0.1962,0.1968,0.1972,0.2007,0.2018,0.1902,0.1902,0.1902,0,0,0.1528,0.1551,0.1568,0.1607,0.1635,0.1663,0.167,0.1716,0.1748,0.1751,0.1816,0.1839,0.1856,0.1905,0.1931,0.1914,0.2005,0.1973,0.1978,0.1979,0.2013,0.2024,0.2034,0.1904,0.1904,0.1903,0,0,0.1544,0.1579,0.1604,0.1632,0.168,0.1697,0.1717,0.1757,0.1791,0.1844,0.1859,0.1906,0.1949,0.197,0.1984,0.2046,0.2044,0.2061,0.2101,0.2135,0.2145,0.2153,0.2179,0.2189,0.2065,0.2065,0.2065,0,0.1555,0.1588,0.1617,0.1647,0.1677,0.1714,0.1747,0.178,0.1836,0.1867,0.1876,0.196,0.1977,0.2033,0.206,0.2063,0.2081,0.2063,0.2144,0.2153,0.216,0.2184,0.2195,0.2068,0.2068,0.2067,0.2067,0,0.1578,0.1619,0.164,0.1689,0.1723,0.1762,0.1804,0.1852,0.1896,0.1926,0.2005,0.2033,0.2082,0.2099,0.2101,0.217,0.2165,0.2148,0.2118,0.2175,0.2197,0.2207,0.2072,0.2071,0.207,0.207,0,0,0.1563,0.164,0.1651,0.1684,0.1753,0.1777,0.1843,0.1903,0.1951,0.2012,0.2074,0.2133,0.2159,0.2176,0.2192,0.2224,0.2297,0.2218,0.2219,0.2239,0.2379,0.2247,0.2245,0.23,0.2302,0.2304,0.2374,0,0.1576,0.1633,0.1673,0.1736,0.1768,0.1828,0.188,0.1944,0.2002,0.2071,0.2122,0.2186,0.2185,0.2223,0.2258,0.2291,0.2326,0.2279,0.2325,0.2326,0.2197,0.2253,0.231,0.2382,0.2384,0.2386,0.2387,0,0.1579,0.162,0.1681,0.1762,0.1783,0.183,0.1924,0.1977,0.2074,0.2124,0.2198,0.2239,0.2318,0.23,0.2386,0.2362,0.238,0.2393,0.2396,0.2258,0.2212,0.2312,0.2405,0.2403,0.2402,0.2401,0.24,0,0.1536,0.1623,0.1673,0.1703,0.1796,0.1847,0.1905,0.1999,0.2059,0.2168,0.2228,0.2308,0.2373,0.241,0.2455,0.2433,0.2534,0.2499,0.2396,0.2387,0.2459,0.2449,0.2553,0.2553,0.2553,0.2553,0.2552,0,0.1516,0.1561,0.1665,0.169,0.1759,0.1834,0.1915,0.1986,0.2097,0.2161,0.2258,0.2316,0.2409,0.2476,0.2487,0.2477,0.2564,0.2411,0.2398,0.2482,0.2474,0.2466,0.2455,0.2555,0.2555,0.2554,0.2554,0,0.1454,0.1525,0.1588,0.1699,0.1741,0.179,0.1922,0.1972,0.2092,0.2183,0.2228,0.2361,0.2435,0.2507,0.2575,0.2512,0.2515,0.2489,0.2592,0.2582,0.2335,0.2326,0.2365,0.2361,0.2358,0.2355,0.2352,0,0.1423,0.1452,0.158,0.1621,0.1679,0.1768,0.1824,0.1956,0.201,0.2182,0.2213,0.2348,0.2413,0.2406,0.2486,0.2503,0.2475,0.2459,0.2373,0.2333,0.2317,0.2314,0.231,0.2347,0.2346,0.2345,0.2344,0,0.1362,0.1423,0.1475,0.1561,0.1633,0.1695,0.1791,0.1821,0.196,0.2095,0.2142,0.2184,0.227,0.2312,0.2357,0.2358,0.2454,0.2423,0.2428,0.2347,0.2312,0.2298,0.2299,0.2332,0.2334,0.2335,0.2336,0,0.132,0.134,0.1419,0.1481,0.1566,0.1596,0.1656,0.1716,0.1786,0.197,0.1979,0.2114,0.2238,0.224,0.2274,0.2276,0.2231,0.2145,0.2164,0.2178,0.2085,0.201,0.1934,0,0,0,0,0,0.1265,0.1276,0.133,0.1387,0.1466,0.1513,0.162,0.168,0.1817,0.1801,0.1884,0.1944,0.1996,0.2071,0.2035,0.2203,0.2248,0.2152,0.216,0.2267,0.228,0.2188,0,0,0,0,0,0,0.1226,0.1273,0.1292,0.1295,0.1316,0.1382,0.1443,0.1534,0.1531,0.1678,0.1717,0.1831,0.1915,0.1996,0.1998,0.2022,0.1988,0.2243,0.2238,0.2259,0.2271,0.2282,0.2192,0,0,0,0,0]},{"header":{"parameterUnit":"m.s-1","parameterCategory":2,"la1":30.2991,"la2":30.254,"lo1":-89.0895,"lo2":-89.0444,"dy":0.0017,"dx":0.0017,"nx":28,"ny":28,"refTime":"2024-10-09T03:00:00:Z","depth":"4","parameterNumber":3,"parameterNumberName":"V-component_of_CURRENTS"},"data":[0,0,0,0,0,0,0,0,0,0,0,0,0,0,0,0,0,0,0,0,0,0,0,0,0,0,0,0,0,0,0,0,0,0,0,0,0,0,0,0,0,0,0,0,0,0,0,0,0,0,0,0,0,0,0,0,0,0,0.012,0.012,0,0.0075,0.0075,0.0074,0.0043,0.0043,0.0043,0.0043,-0.0015,-0.0016,-0.0017,0,0,0,0,0,0,0,0,0,0,0,0,0,0.0145,0.0145,0.012,0.012,0.0119,0.0075,0.0075,0.0074,0.0043,0.0043,0.0043,0.0043,-0.0014,-0.0016,-0.0017,0,0,0,0,0,0,0,0,0,0,0,0,0,0.012,0.0145,0.012,0.01,0.0097,0.0076,0.0075,0.0074,0.0043,0.0043,0.0043,0.0043,-0.0014,-0.0016,-0.0018,-0.0027,0,0,-0.0024,-0.0025,0,0,0,0,0,0,0,0,0.0121,0.0119,0.0103,0.0101,0.0099,0.0066,0.0062,0.004,0.0043,0.0063,0.0043,0.0043,0.0012,0.0008,-0.0002,-0.003,-0.0033,-0.0024,-0.0026,-0.0027,-0.0027,0,0,0,0,0,0,0,0.0123,0.012,0.0101,0.0103,0.01,0.0081,0.0077,0.0058,0.0038,0.0061,0.0059,0.0056,0.0011,0.0,-0.0003,-0.0033,-0.0024,-0.0026,-0.0028,-0.0028,-0.0073,-0.0073,0,0,0,0,0,0,0.0133,0.0122,0.0103,0.01,0.0111,0.0081,0.0077,0.0075,0.0038,0.0033,0.0056,0.0055,0.0004,-0.0001,-0.0006,-0.0009,-0.0027,-0.0029,-0.003,-0.0073,-0.0073,-0.0073,0,0,0,0,0,0,0.0134,0.0132,0.0104,0.0111,0.0106,0.0081,0.008,0.0075,0.0066,0.0035,0.0029,0.0053,0.0004,-0.0003,-0.0018,-0.0012,-0.003,-0.0032,-0.0074,-0.0073,-0.0073,-0.0023,0,0,0,0,0,0,0.0135,0.0132,0.0135,0.0112,0.0106,0.0098,0.008,0.0074,0.0065,0.0063,0.003,0.0024,0.0003,-0.0014,-0.002,-0.0015,-0.0033,-0.0074,-0.0074,-0.0073,-0.0025,-0.0021,-0.0018,0,0,0,0,0,0.0136,0.0143,0.0136,0.0134,0.0111,0.0098,0.0094,0.0074,0.0065,0.0065,0.0043,0.0026,-0.0018,-0.0016,-0.0022,-0.0018,-0.0074,-0.0074,-0.0073,-0.0026,-0.0022,-0.0018,0,0,0,0,0,0,0.0155,0.014,0.0132,0.0134,0.012,0.0094,0.0092,0.0078,0.006,0.0059,0.0028,0.0021,0.0008,-0.0012,-0.001,-0.0032,-0.0049,-0.005,-0.0011,-0.0007,-0.0004,0.0012,-0.0035,0,0,0,0,0,0.0161,0.0164,0.0144,0.0146,0.0141,0.0117,0.011,0.0098,0.0079,0.007,0.0047,0.0023,0.0003,-0.0007,-0.0028,-0.0038,-0.0062,-0.0041,-0.0038,-0.0034,-0.0026,-0.006,-0.0059,-0.0073,-0.0073,-0.0073,0,0,0.017,0.0162,0.0163,0.0151,0.0138,0.0139,0.0112,0.0106,0.0108,0.0067,0.0062,0.0034,0.0003,-0.0009,-0.0016,-0.0024,-0.0043,-0.0034,-0.0031,-0.0025,-0.0059,-0.0058,-0.0057,-0.0072,-0.0072,-0.0073,0,0,0.0191,0.0181,0.0191,0.0183,0.0171,0.0157,0.0158,0.0135,0.0125,0.0114,0.0086,0.0065,0.0034,0.0014,0.0,0.0009,-0.0025,-0.0001,0.0031,-0.0002,-0.0001,-0.0,-0.0028,-0.003,0.0002,0.0002,0.0002,0,0.0202,0.0212,0.0192,0.0199,0.02,0.0169,0.0182,0.0167,0.0142,0.0139,0.012,0.0074,0.0046,0.0034,0.0036,0.0018,-0.0006,0.002,0.0003,0.0003,0.0003,-0.0025,-0.0028,0.0004,0.0004,0.0004,0.0003,0,0.0228,0.0237,0.0243,0.0245,0.0242,0.0247,0.0229,0.0222,0.0205,0.0187,0.0168,0.0125,0.01,0.0084,0.0062,0.0049,0.0031,0.0011,-0.0004,0.0008,-0.0023,-0.0027,0.0008,0.0007,0.0006,0.0006,0,0,0.025,0.026,0.0264,0.0279,0.0269,0.0273,0.0276,0.0271,0.0278,0.024,0.0242,0.0197,0.0169,0.0151,0.0116,0.0086,0.0061,0.0053,0.005,0.0033,-0.0009,-0.002,-0.0026,0.0036,0.0036,0.0035,-0.0029,0,0.0278,0.031,0.0305,0.0339,0.0354,0.0336,0.0343,0.0334,0.0317,0.0307,0.0257,0.0242,0.0196,0.0185,0.0147,0.0084,0.0052,0.0081,-0.0023,-0.0025,-0.0032,-0.003,0.0034,-0.0032,-0.0033,-0.0034,-0.0035,0,0.0307,0.0327,0.0365,0.0394,0.0399,0.0412,0.0426,0.0428,0.0403,0.0387,0.0356,0.0317,0.0273,0.0229,0.0128,0.0147,0.0077,0.0023,0.0018,-0.0011,-0.0044,-0.0048,-0.0042,-0.0042,-0.0041,-0.0041,-0.004,0,0.0338,0.0372,0.0409,0.0416,0.0437,0.0453,0.0461,0.0452,0.0468,0.0438,0.0442,0.0374,0.0346,0.0251,0.0139,0.0133,0.0022,-0.0003,-0.008,-0.0081,-0.0074,-0.0074,-0.0075,-0.0075,-0.0075,-0.0075,-0.0075,0,0.0369,0.0401,0.0428,0.0447,0.0497,0.0493,0.0535,0.0528,0.0531,0.0554,0.0488,0.0484,0.0349,0.0272,0.016,0.0031,0.0035,-0.0071,-0.0098,-0.0052,-0.0048,-0.0077,-0.0076,-0.0077,-0.0077,-0.0076,-0.0076,0,0.0395,0.0411,0.0458,0.0494,0.0513,0.0545,0.0594,0.062,0.0612,0.0639,0.0636,0.0567,0.046,0.0324,0.0167,0.0067,-0.0059,-0.0108,-0.0039,-0.0062,-0.0147,-0.0143,-0.0197,-0.0198,-0.0198,-0.0199,-0.02,0,0.041,0.0437,0.0497,0.0532,0.0552,0.0602,0.0639,0.0655,0.0688,0.0689,0.0706,0.0623,0.0555,0.0334,0.0175,-0.0038,-0.0075,-0.0144,-0.0155,-0.0137,-0.0159,-0.0154,-0.0149,-0.0201,-0.0201,-0.0201,-0.0202,0,0.0439,0.046,0.05,0.0573,0.0624,0.0685,0.0739,0.0772,0.0788,0.0791,0.0766,0.0651,0.0527,0.0342,0.0175,0.0019,-0.0101,-0.0153,-0.0153,-0.0163,-0.0143,-0.0163,-0.0157,-0.0204,-0.0204,-0.0204,-0.0203,0,0.0462,0.0493,0.0546,0.0611,0.0678,0.0741,0.077,0.0806,0.0836,0.0836,0.0824,0.0685,0.0604,0.0372,0.0219,0.0064,0.0016,-0.0043,-0.005,-0.0049,0.0006,0.0053,0.0034,0,0,0,0,0,0.048,0.0517,0.058,0.0649,0.0715,0.0757,0.0827,0.0848,0.087,0.0863,0.0847,0.073,0.05,0.0403,0.0246,0.0189,-0.0019,-0.0002,-0.0093,-0.0219,-0.0216,-0.018,0,0,0,0,0,0,0.0491,0.055,0.058,0.0666,0.0718,0.0795,0.084,0.0859,0.0856,0.0854,0.0741,0.0681,0.0463,0.0593,0.0241,0.0194,0.0111,-0.0107,-0.0111,-0.0221,-0.0218,-0.0216,-0.0177,0,0,0,0,0]}]]